Location: Haliburton Scout Reserve
(45.0900°N, 78.3200°W)
Time: 22:50:23
(UTC-04:00)

LilacSat-2 - Visible Passes

Search period start: 28 March 2023 00:00
Search period end: 07 April 2023 00:00
Orbit: 499 x 521 km, 97.5° (Epoch: 28 March)

Date Brightness Start Highest point End Pass type
(mag) Time Alt. Az. Time Alt. Az. Time Alt. Az.
28 Mar ? 06:19:31 10° NE 06:21:53 16° E 06:24:15 10° SE visible
29 Mar ? 06:04:29 10° ENE 06:05:09 10° E 06:05:49 10° E visible
03 Apr ? 06:14:04 10° ENE 06:16:04 14° E 06:18:03 10° SE visible
